Franklin, PA

10:07 PM EST on December 10, 2019 (GMT -0500)
Venango Regional

Weather History for KFKL - August, 2019

Change the Weather History Date:

Saturday, August 31, 2019

  Actual Average Record
Temperature  
Mean Temperature 61 °F -  
Max Temperature 72 °F 80 °F 96 °F (1932)
Min Temperature 51 °F 55 °F 39 °F (1934)
Degree Days  
Heating Degree Days 4    
Growing Degree Days 11 (Base 50)    
Moisture  
Dew Point 53 °F    
Average Humidity 90    
Maximum Humidity 100    
Minimum Humidity 51    
Precipitation  
Precipitation 0.00 in - - ()
Sea Level Pressure  
Sea Level Pressure 30.27 in    
Wind  
Wind Speed 1 mph (NE)    
Max Wind Speed 6 mph    
Max Gust Speed -    
Visibility 4 miles    
Events Fog    
Averages and records for this station are not official NWS values.
T = Trace of Precipitation, MM = Missing Value Source: NWS Daily Summary

Daily Weather History Graph

Daily Weather History Graph

Search for Another Location

Airport or City:

Astronomy

Aug. 31, 2019 Rise Set
Actual Time 6:44 AM EDT 7:54 PM EDT
Civil Twilight 6:15 AM EDT 8:22 PM EDT
Nautical Twilight 5:41 AM EDT 8:56 PM EDT
Astronomical Twilight 5:06 AM EDT 9:32 PM EDT
Moon 7:58 AM EDT (8/31) 9:05 PM EDT (8/31)
Length of Visible Light 14h 06m
Length of Day
13h 09m
New Moon, 2% of the Moon is Illuminated
Aug 31
New Moon
Sep 5
First Quarter
Sep 14
Full
Sep 21
Last Quarter
Sep 28
New

Hourly Weather History & Observations

Time (EDT) Temp. Dew Point Humidity Pressure Visibility Wind Dir Wind Speed Gust Speed Precip Events Conditions
12:34 AM 57.2 °F 55.4 °F 94% 30.22 in 1.8 mi Calm Calm - N/A   Clear
12:48 AM 57.2 °F 55.4 °F 94% 30.22 in 4.0 mi Calm Calm - N/A   Clear
12:51 AM 57.2 °F 55.4 °F 94% 30.23 in 1.8 mi Calm Calm - N/A   Clear
12:56 AM 57.0 °F 55.9 °F 96% 30.21 in 1.2 mi NNE 3.5 mph - N/A   Clear
1:12 AM 55.4 °F 55.4 °F 100% 30.22 in 1.0 mi NNE 3.5 mph - N/A   Mist
1:15 AM 55.4 °F 55.4 °F 100% 30.22 in 0.5 mi NNE 4.6 mph - N/A Fog Fog
1:46 AM 55.4 °F 55.4 °F 100% 30.23 in 1.0 mi Calm Calm - N/A   Mist
1:54 AM 55.4 °F 55.4 °F 100% 30.22 in 2.0 mi Calm Calm - N/A   Partly Cloudy
1:56 AM 55.9 °F 55.0 °F 97% 30.21 in 2.0 mi Calm Calm - N/A   Partly Cloudy
2:03 AM 55.4 °F 55.4 °F 100% 30.23 in 1.0 mi Calm Calm - N/A   Mist
2:08 AM 55.4 °F 55.4 °F 100% 30.23 in 1.2 mi Calm Calm - N/A   Clear
2:19 AM 55.4 °F 55.4 °F 100% 30.22 in 5.0 mi Calm Calm - N/A   Clear
2:37 AM 55.4 °F 55.4 °F 100% 30.23 in 2.5 mi Calm Calm - N/A   Clear
2:46 AM 55.4 °F 55.4 °F 100% 30.23 in 1.0 mi NNE 3.5 mph - N/A   Clear
2:56 AM 55.0 °F 55.0 °F 100% 30.22 in 1.5 mi Calm Calm - N/A   Partly Cloudy
2:59 AM 55.4 °F 55.4 °F 100% 30.23 in 0.8 mi East 3.5 mph - N/A   Mist
3:04 AM 53.6 °F 53.6 °F 100% 30.23 in 0.2 mi Calm Calm - N/A Fog Fog
3:50 AM 55.4 °F 53.6 °F 94% 30.24 in 0.8 mi ENE 3.5 mph - N/A   Mostly Cloudy
3:52 AM 55.4 °F 53.6 °F 94% 30.24 in 2.0 mi ENE 3.5 mph - N/A   Mostly Cloudy
3:56 AM 54.0 °F 54.0 °F 100% 30.23 in 9.0 mi ENE 4.6 mph - N/A   Scattered Clouds
4:28 AM 53.6 °F 53.6 °F 100% 30.25 in 1.0 mi NE 3.5 mph - N/A   Clear
4:30 AM 53.6 °F 53.6 °F 100% 30.25 in 0.5 mi NE 3.5 mph - N/A Fog Fog
4:33 AM 53.6 °F 53.6 °F 100% 30.25 in 0.2 mi NE 3.5 mph - N/A Fog Fog
4:56 AM 53.1 °F 52.0 °F 96% 30.24 in 0.2 mi Calm Calm - N/A Fog Fog
5:02 AM 53.6 °F 51.8 °F 94% 30.25 in 0.8 mi Calm Calm - N/A   Mostly Cloudy
5:11 AM 51.8 °F 51.8 °F 100% 30.26 in 0.2 mi Calm Calm - N/A Fog Fog
5:31 AM 51.8 °F 51.8 °F 100% 30.26 in 0.5 mi Calm Calm - N/A Fog Fog
5:37 AM 53.6 °F 51.8 °F 94% 30.26 in 1.0 mi Calm Calm - N/A   Mostly Cloudy
5:43 AM 51.8 °F 51.8 °F 100% 30.27 in 0.5 mi Calm Calm - N/A Fog Fog
5:56 AM 52.0 °F 52.0 °F 100% 30.27 in 0.8 mi Calm Calm - N/A   Mist
6:04 AM 51.8 °F 51.8 °F 100% 30.27 in 0.2 mi Calm Calm - N/A Fog Fog
6:23 AM 51.8 °F 51.8 °F 100% 30.28 in 0.5 mi Calm Calm - N/A Fog Fog
6:38 AM 53.6 °F 53.6 °F 100% 30.28 in 1.0 mi Calm Calm - N/A   Mostly Cloudy
6:41 AM 53.6 °F 51.8 °F 94% 30.29 in 0.5 mi Calm Calm - N/A Fog Fog
6:56 AM 52.0 °F 52.0 °F 100% 30.29 in 0.2 mi Calm Calm - N/A Fog Fog
7:03 AM 51.8 °F 51.8 °F 100% 30.29 in 0.2 mi NNE 3.5 mph - N/A Fog Fog
7:16 AM 53.6 °F 51.8 °F 94% 30.30 in 0.8 mi ENE 3.5 mph - N/A   Mist
7:18 AM 53.6 °F 51.8 °F 94% 30.30 in 1.2 mi ENE 3.5 mph - N/A   Partly Cloudy
7:20 AM 51.8 °F 51.8 °F 100% 30.30 in 7.0 mi Calm Calm - N/A   Partly Cloudy
7:27 AM 51.8 °F 51.8 °F 100% 30.30 in 1.8 mi Calm Calm - N/A   Partly Cloudy
7:38 AM 53.6 °F 51.8 °F 94% 30.30 in 3.0 mi NE 3.5 mph - N/A   Clear
7:41 AM 53.6 °F 51.8 °F 94% 30.30 in 0.8 mi NE 3.5 mph - N/A   Clear
7:43 AM 51.8 °F 51.8 °F 100% 30.30 in 0.2 mi NE 3.5 mph - N/A Fog Fog
7:56 AM 53.1 °F 53.1 °F 100% 30.30 in 0.2 mi Calm Calm - N/A Fog Fog
8:03 AM 53.6 °F 53.6 °F 100% 30.30 in 0.5 mi Calm Calm - N/A Fog Fog
8:11 AM 53.6 °F 53.6 °F 100% 30.31 in 0.2 mi Calm Calm - N/A Fog Fog
8:15 AM 55.4 °F 53.6 °F 94% 30.31 in 0.8 mi Calm Calm - N/A   Overcast
8:18 AM 55.4 °F 55.4 °F 100% 30.31 in 2.0 mi Calm Calm - N/A   Mostly Cloudy
8:25 AM 55.4 °F 55.4 °F 100% 30.32 in 10.0 mi Calm Calm - N/A   Scattered Clouds
8:56 AM 57.0 °F 54.0 °F 89% 30.32 in 10.0 mi ESE 3.5 mph - N/A   Clear
9:56 AM 61.0 °F 55.0 °F 81% 30.33 in 10.0 mi North 5.8 mph - N/A   Clear
10:56 AM 64.9 °F 55.0 °F 70% 30.34 in 10.0 mi NE 5.8 mph - N/A   Clear
11:56 AM 68.0 °F 52.0 °F 56% 30.34 in 10.0 mi Variable 5.8 mph - N/A   Clear
12:56 PM 69.1 °F 50.0 °F 51% 30.33 in 10.0 mi East 3.5 mph - N/A   Clear
1:56 PM 69.1 °F 52.0 °F 54% 30.32 in 10.0 mi Calm Calm - N/A   Clear
2:56 PM 71.1 °F 52.0 °F 51% 30.31 in 10.0 mi East 3.5 mph - N/A   Clear
3:56 PM 70.0 °F 51.1 °F 51% 30.30 in 10.0 mi Calm Calm - N/A   Clear
4:56 PM 71.1 °F 53.1 °F 53% 30.30 in 10.0 mi Calm Calm - N/A   Clear
5:56 PM 71.1 °F 52.0 °F 51% 30.30 in 10.0 mi Calm Calm - N/A   Clear
6:56 PM 69.1 °F 53.1 °F 57% 30.30 in 10.0 mi Calm Calm - N/A   Clear
7:56 PM 63.0 °F 55.9 °F 78% 30.30 in 10.0 mi Calm Calm - N/A   Clear
8:56 PM 62.1 °F 55.9 °F 80% 30.30 in 10.0 mi North 4.6 mph - N/A   Clear
9:56 PM 61.0 °F 54.0 °F 78% 30.29 in 10.0 mi NE 5.8 mph - N/A   Clear
10:56 PM 60.1 °F 53.1 °F 78% 30.29 in 10.0 mi NE 4.6 mph - N/A   Clear
11:56 PM 59.0 °F 53.1 °F 81% 30.29 in 10.0 mi NNE 5.8 mph - N/A   Clear